User: anonymous   Login
Location: Silverdale
(47.6506°N, 122.6941°W)
Time: 15:07:11
(UTC+00:00)
Language:

Vanguard 2 - Orbit

View from above orbital plane
View from above orbital plane
View from above satellite
View from above satellite

Ground track
Ground track

The orbit data is extracted from the following two-line orbital elements,

1 00011U 59001A   22275.68751375  .00000319  00000-0  15349-3 0  9995
2 00011  32.8751 151.0693 1467154 299.3423  46.8449 11.86174376374390
Epoch (UTC): 02 October 2022 16:30:01
Eccentricity: 0.1467154
inclination: 32.8751°
perigee height: 552 km
apogee height: 2935 km
right ascension of ascending node: 151.0693°
argument of perigee: 299.3423°
revolutions per day: 11.86174376
mean anomaly at epoch: 46.8449°
orbit number at epoch: 37439

The dashed part of the orbit path shows where the satellite is in the earth's shadow,  

DLR